Starlink 6350

operational
NORAD ID: 57226 Int'l Des: 2023-094 Owner: SPXS Country: US Constellation: starlink
LEOCIRCULAR

About Starlink 6350

Description loading...

Live Position

Loading 3D Globe...

Upcoming Passes

Altitude History

Altitude vs Time

uPlot chart will show altitude changes over time

Two-Line Element Set

1 57226U 23094J 25258.34983017 .00000011 00000-0 15852-4 0 9994
2 57226 43.0032 263.1345 0001254 271.1679 88.9020 15.02536227120749
Epoch: Sep 15, 2025 • Age: 24 hours

Current Status

Altitude 560.8 km
Velocity 7.59 km/s
Sub-Earth Point 32.92°N, 177.37°E
Launch Date Jul 7, 2023
Age 2.1 years
Type internet

Technical Details

Classification Payload
Mass 305.00 kg
Dry Mass 290.00 kg
Total Mass 305.00 kg
Length 0.20 m
Diameter 2.80 m
Span 9.00 m
Shape Box + pan
Manufacturer SPXS
Bus Type Starlink
Phase Status In Orbit
Owner/State SPXS/US

Large Constellations

Loading constellations...